Location: Newark
(54.6833°N, 25.2833°E)
Time: 19:30:16
(UTC+00:00)

X-37B - Visible Passes

Search period start: 20 September 2020 00:00
Search period end: 30 September 2020 00:00
Orbit: 386 x 387 km, 45.0° (Epoch: 18 September)

Date Brightness Start Highest point End Pass type
(mag) Time Alt. Az. Time Alt. Az. Time Alt. Az.
20 Sep 3.5 01:33:17 10° SE 01:33:17 10° SE 01:33:17 10° SE visible
20 Sep 2.9 03:05:52 10° SW 03:07:13 12° SSW 03:08:34 10° S visible
21 Sep 3.0 02:09:45 13° S 02:09:45 13° S 02:10:41 10° SSE visible
